Back to catalog

STARLINK-31644

AliveCommunicationsVLEO
NORAD 59391·PAYLOAD·🇺🇸 United States

Launched Apr 2, 2024 from Vandenberg Space Force Base

Loading…

Next Passes (next 24 hours)

TLE

FreshSource: CelesTrak SupGP

Epoch: Sep 14, 2026, 22:44 UTC

1 59391C 24062T   26257.94770833  .00009443  00000+0  27906-3 0  2577
2 59391  53.1570  95.7552 0001256  83.3371 123.8920 15.34380069    17

Track STARLINK-31644 in real time with AllMySat

Download on the App Store